{"data":{"norad_id":66981,"epoch":"2026-09-20T07:55:18.627744Z","epoch_age_seconds":97113,"freshness":"FRESH","line1":"1 66981U 25288Y   26263.33007671  .00012677  00000+0  46924-3 0  9991","line2":"2 66981  43.0020   4.3539 0000966 280.0310  80.0432 15.27590779 45053","mean_motion":15.27590779,"eccentricity":9.66e-5,"inclination_deg":43.002,"raan_deg":4.3539,"arg_perigee_deg":280.031,"mean_anomaly_deg":80.0432,"bstar":0.00046924,"rev_number":4505,"period_min":94.266083547759,"perigee_km":482.3540325667,"apogee_km":483.67960748473,"semimajor_km":6861.1538200257,"source":"CELESTRAK","updated_at":"2026-09-21T09:00:36.066638Z"}}